Location: Casilda
(33.0440°S, 61.1680°W)
Time: 10:45:02
(UTC-03:00)

ISS - Pass Details

Date: 17 October 2019
Orbit: 411 x 421 km, 51.6° (Epoch: 18 October)

Event Time Altitude Azimuth Distance (km) Brightness Sun altitude
Exits shadow 03:50:50 17° 131° (SE) 1,178 -0.7 -29.8°
Drops below altitude 10° 03:52:31 10° 102° (ESE) 1,519 -0.2 -29.5°
Sets 03:55:07 0° 82° (E) 2,379 0.7 -29.0°
